Wind_Speed
25 25 24 24 24 24 25 25 25 25 25 24 24 24 25 24 24 25 26 25 25 26 28 28 27 27 25 24 23 23 22 20 20 19 18 18 17 18 19 18 18 16 15
25 26 25 25 24 24 24 24 24 24 23 23 22 22 22 22 23 24 24 25 25 26 27 27 27 27 27 26 25 25 25 24 22 22 21 20 19 18 20 20 19 19 17
26 25 25 25 24 24 24 24 23 23 22 21 21 21 20 21 21 22 23 23 25 26 27 27 28 28 27 27 27 26 26 26 25 24 24 23 22 21 21 21 21 20 19
26 25 25 24 24 23 23 23 22 21 20 19 19 18 18 19 20 20 21 22 24 25 26 27 27 27 28 28 28 28 28 28 28 27 27 26 25 23 23 23 23 22 21
26 25 25 24 23 23 22 22 21 20 19 18 17 17 17 17 18 19 20 21 23 25 26 27 27 27 29 29 29 29 30 31 30 29 29 29 28 27 26 25 24 24 23
26 25 25 24 23 22 22 21 20 19 18 17 16 16 16 17 17 18 20 21 22 24 26 27 28 28 29 30 30 30 31 32 32 31 31 31 31 30 29 28 27 26 26
25 25 24 24 23 23 22 21 20 19 18 17 16 16 16 16 16 17 19 20 22 23 24 26 28 29 30 31 31 31 32 34 33 33 33 32 32 32 32 31 30 30 29
25 24 24 24 24 23 22 22 21 20 20 18 17 17 17 17 17 18 19 20 21 22 23 25 27 29 31 31 32 33 33 34 34 34 34 34 33 33 33 33 32 32 32
25 25 24 24 24 24 23 23 22 22 21 20 19 18 18 18 19 19 19 20 21 22 22 24 27 29 31 31 33 33 33 33 33 34 35 34 33 33 34 34 34 34 34
24 25 25 26 25 25 26 25 25 23 23 23 21 20 19 18 19 21 21 21 20 21 21 22 24 27 29 31 31 32 31 31 33 34 35 34 33 33 33 34 34 35 35
25 26 27 28 28 28 28 29 28 26 25 25 24 22 21 20 19 19 21 22 21 20 20 21 22 24 26 27 30 31 31 30 30 32 32 32 33 32 32 32 33 34 34
28 29 29 29 30 30 31 31 31 30 29 27 26 25 23 22 21 20 20 22 22 21 20 20 21 22 24 26 27 29 28 27 27 27 28 30 30 30 31 31 32 33 34
33 33 34 33 33 33 33 33 33 33 32 30 29 27 26 25 24 22 21 21 22 22 21 20 20 21 22 23 25 25 25 25 25 23 24 26 27 29 30 30 31 32 33
41 40 40 38 37 37 37 37 36 36 35 34 32 30 29 27 26 25 24 22 21 22 21 20 20 19 20 22 23 23 23 24 22 21 22 22 24 27 29 30 31 31 32
47 46 46 45 43 42 42 41 40 39 39 37 35 33 31 30 29 27 26 24 22 21 21 21 20 19 19 20 22 22 22 22 22 22 22 22 23 24 26 27 29 30 31
52 52 51 51 50 48 47 46 44 43 42 40 38 36 34 32 31 30 28 26 23 22 21 22 20 19 19 20 21 22 23 23 23 22 22 23 23 23 24 25 27 29 30
58 57 56 56 55 54 52 50 49 47 45 43 41 39 36 34 33 32 30 28 25 23 22 22 21 20 20 20 21 22 23 25 25 24 24 23 23 23 24 25 25 25 26
63 62 62 61 59 58 57 55 53 51 49 47 45 43 40 37 35 33 31 29 27 24 22 21 21 20 20 20 21 23 24 26 26 25 24 23 23 23 23 23 23 23 23
63 65 66 65 65 63 62 59 58 55 53 51 48 46 43 40 37 35 33 31 29 26 23 22 21 20 21 20 21 22 24 25 25 24 24 23 23 22 22 22 21 21 21
54 60 64 67 68 68 67 64 62 59 56 54 51 48 46 43 40 37 35 32 30 27 24 23 21 21 21 21 21 21 22 23 24 24 24 23 22 21 21 21 21 20 21
43 47 51 57 63 67 68 68 66 64 60 57 53 50 48 45 42 39 36 34 31 29 26 24 22 21 20 20 20 20 20 21 22 22 22 21 20 20 19 19 19 20 20
39 40 42 44 49 55 61 65 66 66 63 60 56 53 50 47 45 41 39 36 33 30 27 25 23 22 21 21 19 19 19 19 20 20 20 19 19 19 19 19 19 19 19
40 39 38 38 40 43 47 52 58 62 63 61 58 55 52 49 46 43 40 37 34 31 28 25 23 21 20 20 19 19 19 19 19 19 19 19 18 18 18 18 17 17 18
38 38 38 37 36 37 40 42 46 52 57 59 59 57 54 51 48 44 41 38 35 32 29 25 23 21 20 20 20 19 20 19 19 19 18 18 18 18 18 18 18 17 17
40 39 38 37 37 36 36 37 39 43 48 53 56 56 55 53 50 46 42 38 35 32 29 26 23 21 20 19 19 19 19 19 19 19 18 18 18 18 17 18 18 18 17
41 39 38 37 37 36 36 36 35 37 41 47 51 54 54 53 51 47 44 40 35 32 29 26 23 21 20 20 19 19 19 19 18 18 18 18 18 18 17 17 17 17 17
Wind_Direction
283 281 279 277 276 275 274 274 274 275 275 275 273 274 276 275 274 274 272 270 268 265 262 257 253 251 248 245 244 243 241 240 241 241 241 242 242 240 240 242 242 244 247
280 279 277 276 274 272 269 268 268 270 272 272 273 274 276 276 275 273 272 270 268 267 265 260 253 251 246 243 242 241 240 239 239 240 241 241 242 240 239 240 240 241 242
277 277 277 275 274 272 270 266 265 264 265 267 269 272 274 276 276 274 272 270 268 267 265 262 256 251 246 242 240 239 239 238 238 240 241 241 242 241 240 239 239 239 239
276 278 278 276 273 271 269 266 263 262 262 264 267 271 275 279 281 280 278 274 270 268 266 262 257 252 248 243 240 239 238 238 238 239 240 241 241 240 239 238 237 237 237
279 280 279 276 273 270 266 262 260 261 262 264 268 273 278 282 285 287 286 282 275 269 266 262 259 252 246 243 240 239 238 236 236 237 238 239 239 239 239 238 237 237 238
278 278 276 273 271 269 264 258 256 257 259 264 269 273 278 283 287 290 291 288 283 276 269 263 258 253 246 244 241 240 239 238 236 236 237 238 239 239 239 239 239 239 240
275 274 271 269 268 265 260 254 253 255 256 259 265 272 276 281 287 292 294 292 288 281 273 265 258 253 248 244 242 241 240 240 238 236 236 237 238 238 238 239 240 241 241
270 270 267 264 263 260 255 251 252 255 256 258 263 270 277 282 286 291 295 295 292 287 279 269 260 254 249 247 244 241 239 240 237 236 235 236 237 238 238 239 241 242 242
266 265 262 261 259 256 252 250 252 255 257 259 261 266 272 280 287 292 295 296 295 291 284 274 265 257 252 249 246 244 241 240 238 237 235 234 235 237 239 241 242 242 243
267 264 261 259 256 253 251 250 251 254 257 260 262 265 269 274 282 290 295 297 297 293 288 281 271 260 254 248 246 245 244 243 241 238 236 236 235 236 239 240 242 243 244
267 262 259 258 256 253 251 250 251 253 255 259 263 267 271 274 278 284 292 297 299 295 290 284 275 265 257 248 248 245 244 242 243 241 239 238 237 237 240 241 242 244 245
264 261 259 257 256 254 253 253 253 254 255 257 261 265 271 275 278 282 287 294 298 297 293 286 279 268 259 252 251 246 243 243 243 242 240 239 238 239 240 242 244 245 246
262 259 257 255 255 254 254 254 255 255 256 257 260 263 267 273 278 281 285 289 294 295 293 288 281 272 262 254 250 249 244 243 242 243 243 242 240 240 241 243 244 245 247
262 259 255 253 252 252 252 252 253 255 256 257 259 262 265 269 274 279 282 286 289 291 292 289 283 274 264 256 249 248 244 240 240 243 243 245 242 242 242 242 244 246 247
262 260 257 254 252 250 250 250 251 253 254 256 258 260 263 266 270 276 280 282 285 287 289 288 283 275 265 255 248 244 241 239 239 241 242 243 244 243 243 243 244 245 246
261 259 257 254 252 251 249 249 250 251 252 254 256 259 261 263 267 271 276 279 281 282 284 285 281 274 265 256 249 243 239 237 237 239 241 242 244 243 244 245 246 246 245
259 257 256 254 253 252 250 249 249 250 250 252 254 256 259 261 263 267 272 275 277 279 281 281 279 273 264 256 249 243 239 237 238 239 241 243 245 246 248 247 247 246 245
257 255 254 253 252 251 251 249 249 248 249 250 251 253 255 258 260 262 266 269 272 275 277 277 277 272 263 256 250 245 239 238 238 240 243 245 247 248 248 248 247 245 244
255 253 251 251 250 250 249 249 248 247 247 247 248 249 251 254 256 257 260 263 266 269 272 272 273 269 261 255 251 246 241 239 239 241 244 246 248 248 246 247 247 247 246
255 251 249 248 247 247 247 247 246 246 246 246 246 246 247 249 251 253 256 257 260 264 266 268 268 267 261 256 253 249 244 241 240 242 243 245 246 246 246 246 246 247 245
255 252 250 247 245 244 244 244 245 245 244 243 243 244 244 244 247 249 251 252 255 259 262 265 265 264 260 256 252 249 244 241 242 242 243 243 244 245 246 246 247 247 246
259 256 252 250 247 245 243 242 241 242 242 241 241 241 241 241 242 244 246 247 251 254 257 259 261 260 257 253 251 248 245 242 241 240 240 240 243 246 246 246 247 245 244
260 257 255 253 250 247 244 242 240 239 239 238 238 238 238 238 238 239 241 243 246 249 252 255 256 256 254 250 248 246 241 241 240 239 239 240 243 244 244 244 244 241 241
259 257 253 251 250 249 247 244 242 239 236 235 234 234 234 234 235 235 237 238 241 244 246 248 250 251 250 246 244 242 239 239 240 241 240 241 242 241 239 240 238 237 237
256 255 254 251 249 248 248 247 245 241 236 233 230 229 230 230 231 232 232 234 237 240 240 244 246 247 246 242 240 240 238 237 239 239 238 238 238 237 235 234 233 233 232
254 253 251 250 248 247 247 246 247 243 237 231 227 225 225 226 226 227 228 230 232 235 236 239 242 244 242 237 237 237 234 233 236 238 236 235 235 234 233 230 231 232 230
Height
5861 5861 5860 5859 5858 5857 5857 5856 5856 5855 5855 5855 5854 5854 5853 5852 5852 5851 5851 5851 5851 5851 5851 5851 5851 5854 5856 5858 5860 5861 5863 5864 5866 5868 5870 5871 5873 5874 5876 5878 5880 5881 5883
5855 5854 5853 5852 5852 5851 5850 5850 5850 5850 5849 5849 5849 5848 5847 5847 5846 5846 5845 5845 5846 5846 5845 5845 5845 5847 5850 5852 5854 5855 5857 5859 5861 5863 5865 5867 5868 5870 5872 5874 5876 5878 5879
5849 5847 5846 5845 5845 5844 5844 5844 5844 5844 5844 5844 5843 5843 5842 5842 5841 5841 5840 5840 5840 5840 5839 5839 5840 5841 5843 5845 5847 5849 5851 5853 5855 5857 5860 5862 5864 5865 5867 5869 5871 5873 5875
5841 5840 5839 5838 5837 5837 5837 5837 5837 5838 5838 5838 5838 5837 5837 5836 5835 5835 5834 5834 5834 5834 5833 5833 5833 5835 5836 5838 5840 5842 5844 5846 5849 5851 5853 5856 5859 5860 5862 5864 5866 5869 5871
5833 5833 5832 5831 5831 5830 5831 5831 5832 5832 5832 5832 5832 5832 5831 5830 5830 5829 5828 5828 5827 5827 5827 5826 5827 5828 5830 5831 5832 5834 5836 5839 5842 5844 5847 5850 5852 5855 5857 5859 5862 5864 5866
5826 5826 5826 5825 5825 5825 5825 5825 5826 5827 5827 5827 5827 5827 5826 5825 5824 5823 5822 5821 5820 5820 5819 5820 5820 5821 5822 5823 5825 5826 5829 5831 5834 5837 5840 5842 5845 5848 5851 5854 5856 5859 5861
5819 5819 5819 5819 5819 5819 5819 5820 5820 5821 5822 5822 5822 5822 5821 5821 5820 5818 5816 5815 5813 5812 5812 5812 5813 5813 5814 5815 5817 5819 5821 5823 5826 5829 5832 5835 5838 5841 5844 5847 5850 5853 5856
5813 5812 5812 5812 5813 5813 5814 5815 5815 5816 5816 5817 5817 5817 5816 5816 5815 5813 5811 5809 5807 5805 5804 5804 5804 5805 5807 5808 5810 5811 5813 5815 5817 5820 5823 5827 5830 5833 5837 5840 5843 5846 5849
5805 5805 5805 5806 5806 5807 5808 5809 5809 5810 5811 5811 5811 5812 5811 5811 5809 5808 5806 5803 5801 5799 5797 5797 5797 5798 5799 5801 5802 5803 5805 5807 5809 5812 5815 5819 5822 5826 5829 5832 5836 5839 5842
5798 5798 5798 5799 5799 5800 5801 5802 5803 5803 5804 5805 5805 5805 5806 5805 5805 5802 5800 5798 5795 5793 5791 5790 5790 5790 5791 5793 5795 5796 5797 5800 5802 5805 5808 5811 5814 5818 5822 5825 5828 5831 5834
5791 5791 5791 5791 5792 5792 5793 5794 5795 5796 5797 5798 5798 5798 5798 5799 5799 5798 5795 5792 5790 5787 5786 5785 5784 5784 5785 5786 5788 5789 5791 5793 5796 5798 5801 5804 5807 5810 5814 5817 5820 5823 5826
5783 5783 5783 5784 5784 5784 5785 5785 5787 5788 5789 5790 5791 5791 5791 5791 5792 5792 5790 5787 5784 5782 5780 5779 5778 5778 5778 5779 5781 5782 5785 5787 5790 5792 5794 5797 5800 5803 5807 5810 5812 5815 5818
5773 5774 5774 5775 5775 5775 5775 5776 5777 5779 5780 5781 5782 5783 5784 5784 5785 5785 5785 5782 5779 5777 5775 5773 5772 5772 5772 5773 5775 5776 5779 5781 5784 5786 5789 5792 5794 5797 5800 5802 5805 5808 5810
5761 5761 5762 5763 5764 5765 5766 5766 5767 5769 5770 5772 5774 5775 5776 5776 5777 5777 5778 5777 5775 5772 5770 5768 5767 5766 5766 5767 5769 5771 5773 5775 5778 5780 5783 5785 5788 5790 5792 5795 5797 5800 5803
5746 5747 5748 5749 5751 5752 5754 5755 5757 5758 5760 5762 5764 5766 5767 5768 5769 5770 5770 5770 5769 5767 5765 5763 5762 5761 5761 5762 5763 5765 5767 5770 5772 5775 5777 5779 5782 5783 5785 5787 5790 5792 5795
5729 5730 5732 5733 5735 5737 5740 5742 5745 5747 5749 5751 5754 5756 5758 5759 5761 5762 5763 5763 5763 5762 5760 5757 5756 5756 5755 5756 5758 5760 5762 5764 5767 5769 5771 5774 5775 5777 5779 5780 5782 5784 5787
5709 5711 5713 5716 5718 5721 5724 5727 5730 5733 5737 5740 5742 5745 5748 5750 5752 5754 5755 5756 5756 5756 5754 5752 5751 5750 5750 5751 5752 5754 5756 5759 5761 5763 5766 5768 5769 5770 5772 5774 5775 5777 5779
5685 5688 5692 5696 5699 5703 5706 5710 5715 5719 5723 5727 5730 5734 5737 5740 5743 5745 5747 5748 5749 5749 5748 5747 5746 5745 5745 5745 5747 5748 5750 5753 5755 5757 5759 5761 5763 5765 5766 5767 5769 5771 5772
5659 5663 5668 5672 5677 5682 5687 5692 5697 5702 5708 5712 5717 5721 5726 5729 5733 5735 5738 5740 5741 5742 5742 5742 5741 5739 5739 5740 5741 5742 5744 5747 5749 5751 5753 5755 5757 5758 5760 5761 5763 5764 5766
5633 5637 5642 5647 5653 5659 5665 5671 5678 5684 5691 5697 5703 5708 5713 5718 5722 5726 5729 5731 5733 5734 5735 5735 5735 5734 5734 5734 5735 5736 5738 5740 5743 5745 5747 5749 5750 5752 5754 5756 5757 5759 5760
5614 5616 5619 5624 5629 5635 5642 5649 5657 5665 5672 5680 5687 5694 5700 5705 5710 5715 5719 5722 5725 5727 5728 5728 5729 5729 5729 5729 5730 5731 5732 5734 5736 5738 5741 5743 5745 5747 5748 5750 5752 5753 5755
5599 5601 5603 5606 5609 5614 5620 5627 5635 5644 5653 5662 5671 5679 5686 5692 5698 5704 5709 5713 5716 5719 5721 5722 5722 5723 5723 5724 5724 5726 5727 5729 5731 5733 5735 5737 5739 5741 5743 5744 5746 5747 5749
5586 5587 5589 5592 5595 5598 5603 5608 5615 5624 5634 5644 5653 5662 5671 5679 5686 5692 5698 5703 5707 5710 5713 5715 5716 5717 5717 5718 5719 5720 5722 5724 5725 5727 5730 5732 5734 5735 5737 5739 5740 5742 5744
5571 5573 5576 5579 5582 5585 5589 5593 5599 5606 5615 5625 5635 5646 5656 5664 5673 5680 5687 5693 5698 5702 5705 5707 5709 5710 5712 5713 5714 5715 5716 5718 5720 5722 5724 5727 5728 5730 5732 5734 5736 5737 5739
5556 5559 5563 5566 5570 5573 5577 5581 5586 5592 5599 5608 5618 5629 5640 5650 5660 5668 5676 5682 5688 5693 5697 5700 5702 5704 5705 5707 5708 5710 5711 5713 5715 5717 5719 5721 5723 5725 5727 5729 5731 5733 5734
5541 5545 5549 5553 5557 5561 5565 5569 5574 5579 5585 5593 5603 5614 5625 5636 5646 5656 5664 5672 5679 5684 5689 5692 5695 5697 5699 5701 5702 5704 5705 5707 5709 5712 5714 5716 5718 5720 5722 5724 5726 5728 5730